RH
11 12 11 9 8 10 16 25 32 36 37 37 37 36 36 32 19 11 16 17 17 18 12 11 11 5 2 3 3 3 2 3 3 3 3 3 3 3 3 3 2 2 1 3 5 5 4 3 2 3 3 4 5 4 4 4 5 7 14 20 19 20 20 14 8 4 2 2 2 3 4 5 5 6 6 6 6 6 6 6 5 5 5 5 6 7
10 9 7 9 12 12 15 23 33 42 46 44 43 40 35 28 14 8 12 11 11 12 7 6 7 4 3 4 4 4 4 5 5 5 5 4 5 5 4 3 3 2 2 3 4 4 3 3 2 2 2 2 2 2 3 3 3 6 11 14 15 17 17 12 6 4 2 2 3 4 5 6 6 6 6 6 6 6 5 5 5 5 5 6 8 9
7 5 4 12 18 17 15 17 24 30 34 33 31 27 19 12 7 5 7 7 8 9 6 4 4 4 5 6 6 6 6 6 6 5 5 5 6 5 5 5 4 3 3 3 3 3 3 3 2 2 2 2 2 2 3 3 4 6 8 10 11 11 11 9 5 3 2 2 3 5 6 6 7 6 6 6 6 6 5 5 5 5 6 7 8 9
3 2 4 10 14 15 14 14 15 13 11 11 12 11 6 3 4 6 6 7 9 8 6 5 4 5 6 6 6 7 7 7 7 6 6 7 7 7 7 6 6 5 5 4 4 4 3 4 3 2 2 2 2 2 2 2 3 3 4 6 7 8 8 7 4 2 2 3 3 5 6 6 6 6 6 6 6 5 5 5 5 5 6 8 9 10
2 2 3 5 5 6 8 9 8 5 3 3 3 3 2 2 6 8 8 7 7 7 7 8 8 6 5 7 7 7 8 7 7 7 7 7 7 7 8 7 7 7 7 7 6 5 4 4 3 3 3 3 3 3 2 2 3 3 3 5 8 10 10 7 4 2 2 3 4 5 6 6 5 5 5 5 5 5 5 5 5 6 7 9 10 11
1 2 3 3 2 2 3 3 2 2 1 1 2 2 2 3 5 7 8 9 7 6 7 11 15 12 6 7 8 7 8 8 8 8 6 7 8 7 8 8 8 7 7 8 7 7 6 6 6 5 4 4 3 3 3 3 3 4 5 7 9 10 11 8 4 2 2 2 4 5 6 6 5 5 6 5 5 5 5 6 6 7 9 10 11 13
3 5 6 4 2 1 1 1 2 2 1 2 3 4 5 5 5 6 7 9 8 5 6 8 12 14 8 6 8 8 8 8 8 9 7 7 8 7 7 7 7 8 8 7 8 8 8 8 8 8 8 7 5 4 3 3 3 4 5 7 8 9 9 8 4 2 2 2 3 5 5 6 6 6 6 6 6 6 6 7 7 9 10 12 13 13
5 6 5 4 3 2 2 2 2 2 2 3 4 5 5 3 3 4 4 6 5 3 4 5 10 19 16 7 7 8 8 9 9 9 9 8 8 7 7 7 7 7 7 7 8 8 8 8 8 8 9 9 8 5 4 4 4 4 4 5 7 8 8 7 5 3 2 2 3 4 6 7 7 7 7 6 6 6 7 7 8 10 11 12 13 14
5 4 3 3 2 2 3 2 2 2 2 3 3 5 4 3 4 4 4 4 4 8 10 6 12 27 24 9 7 9 8 9 10 9 10 10 9 10 9 8 8 8 8 7 8 8 8 8 8 8 8 9 9 7 6 6 5 5 5 5 6 7 7 6 5 3 2 3 3 4 6 7 8 8 7 7 6 6 7 8 9 10 12 12 13 14
3 3 3 4 3 4 3 2 3 2 3 3 4 5 3 4 3 1 4 3 8 21 19 8 12 26 25 9 6 10 8 9 10 10 11 11 11 11 10 9 8 8 8 8 8 8 8 8 8 8 8 9 9 9 9 8 7 6 6 6 6 6 6 6 5 5 4 4 4 5 5 7 9 9 8 7 7 7 7 8 10 10 12 12 13 16
5 5 6 6 5 6 4 4 4 2 4 3 3 5 3 5 4 5 13 13 21 34 22 7 10 21 26 15 7 9 8 8 10 10 11 11 11 11 10 10 9 8 8 8 8 8 8 8 8 8 8 8 9 9 9 9 8 8 7 7 7 7 7 6 7 7 6 6 6 6 6 7 9 9 9 9 8 9 9 9 10 10 11 12 14 17
6 6 7 7 7 7 6 6 6 4 5 3 4 5 3 6 9 14 25 28 36 40 22 10 14 22 30 20 8 10 9 8 10 10 11 11 11 12 11 11 9 9 9 8 9 9 9 9 8 9 8 8 9 9 9 9 9 8 8 8 7 8 8 8 8 8 9 9 9 9 8 8 9 10 10 10 10 10 11 11 12 12 12 13 15 18
5 5 6 6 6 7 8 8 8 7 7 5 5 5 6 12 12 19 35 37 38 35 19 15 21 28 28 15 8 12 10 10 11 10 11 11 12 12 11 12 11 9 9 9 9 10 10 10 10 9 9 9 9 8 9 9 9 9 8 7 7 7 8 8 9 10 11 12 12 12 12 11 10 11 11 11 12 12 13 14 15 14 14 14 16 20
4 6 7 8 9 9 9 10 10 9 8 7 7 5 9 15 14 30 47 39 30 27 17 18 26 29 22 11 10 12 10 11 11 10 12 11 12 13 12 13 12 11 11 10 11 11 11 11 11 11 10 9 10 9 9 9 9 9 8 7 7 6 7 8 9 10 11 13 15 16 16 16 14 13 13 13 13 14 15 17 18 18 18 17 17 21
7 9 9 8 9 9 9 10 9 10 9 8 8 7 11 11 10 26 41 30 24 25 20 20 24 22 16 11 11 11 10 12 11 11 12 11 12 13 13 13 13 13 12 12 12 12 12 12 12 12 12 11 11 11 10 9 9 9 9 8 8 7 7 8 8 10 11 14 18 20 21 21 20 18 16 16 15 16 17 19 21 22 22 20 19 21
9 9 7 7 8 9 9 10 10 11 10 9 10 10 12 11 7 13 21 18 19 27 26 22 18 13 10 11 10 10 11 11 11 12 11 12 13 12 13 14 13 14 14 14 14 13 13 14 14 15 15 14 14 12 11 10 10 9 9 9 9 8 8 8 9 10 11 14 19 23 26 26 26 24 22 20 19 19 19 21 23 26 27 24 21 23
7 7 7 8 8 9 10 11 11 12 11 11 12 12 11 12 11 12 16 15 18 27 27 18 14 12 11 12 11 11 12 11 11 12 11 12 13 12 14 14 14 15 15 15 15 13 14 15 16 18 17 17 16 14 13 11 10 10 10 10 10 10 9 9 9 10 12 14 17 21 27 31 32 31 30 28 25 23 25 25 26 29 31 27 23 26
8 8 8 8 8 9 9 9 10 12 12 12 12 13 13 14 15 15 18 22 25 34 33 19 14 16 15 15 12 10 12 12 12 12 11 12 12 12 14 14 16 17 15 16 16 14 14 15 18 20 20 19 18 17 15 13 12 11 10 11 11 11 10 10 10 11 12 14 16 20 26 33 38 40 38 35 32 32 33 33 31 32 33 29 25 28
10 11 10 8 9 9 9 9 11 11 12 13 12 13 16 19 22 20 20 25 30 38 42 30 19 18 17 14 12 11 12 13 12 12 12 12 12 13 15 16 17 18 17 19 18 16 16 17 21 23 22 21 19 18 17 15 14 13 12 12 12 12 12 12 12 12 12 14 16 18 21 28 37 45 47 44 42 44 45 42 38 36 34 30 27 30
10 12 11 10 10 11 11 11 11 10 12 13 14 16 17 18 21 20 18 25 27 30 36 33 25 22 17 12 12 14 14 14 14 13 13 14 15 16 17 18 19 19 20 21 21 20 19 20 24 26 25 23 22 21 20 18 17 15 14 14 14 14 14 14 14 13 13 14 15 17 19 23 31 43 52 54 55 55 55 51 45 39 34 30 30 33
11 13 12 11 11 13 13 11 10 9 10 12 13 15 17 18 20 23 21 21 22 28 39 41 32 21 14 13 16 17 17 16 15 15 16 17 18 18 20 20 20 22 24 25 25 24 24 26 28 29 28 25 24 24 22 21 20 19 17 16 15 16 15 15 16 15 16 16 16 18 20 24 31 42 55 62 64 64 61 56 47 37 32 31 32 35
13 13 12 11 11 11 10 9 9 10 9 11 12 11 13 16 19 27 29 20 17 27 36 38 33 21 12 15 19 19 19 19 18 20 20 19 20 20 20 21 23 25 27 28 29 29 29 31 32 32 30 28 27 27 26 25 23 22 21 19 18 18 17 18 18 18 18 18 18 20 22 26 33 43 55 63 66 65 63 54 41 33 32 33 35 37
15 15 14 12 11 10 11 11 11 11 11 11 12 11 13 16 17 23 28 21 19 24 23 28 34 27 17 19 23 23 23 22 22 23 22 22 24 25 25 27 28 29 30 31 33 33 35 35 35 35 34 34 34 33 32 31 29 28 26 24 23 22 21 21 21 21 22 20 20 21 23 28 33 40 50 55 58 59 56 45 34 32 35 36 38 40
18 19 18 15 13 10 9 11 11 13 14 13 13 12 13 16 16 19 21 21 24 26 25 33 39 29 22 26 27 25 25 24 26 26 26 29 31 32 33 32 32 33 34 35 35 36 37 37 38 40 43 45 45 44 44 43 41 40 37 33 30 28 27 27 26 25 24 23 23 23 25 28 32 38 44 47 52 53 46 36 33 35 38 39 41 42
20 20 19 21 24 21 15 14 14 15 17 18 19 19 18 19 21 25 25 25 31 29 26 37 39 27 25 29 27 26 26 26 29 32 35 39 39 38 38 37 37 38 38 38 38 38 38 38 38 40 43 47 49 51 52 53 52 50 47 43 38 34 32 31 30 29 27 26 25 25 27 30 34 39 43 47 50 46 37 33 36 40 42 43 45 45
25 25 24 26 32 33 28 21 17 17 20 20 21 22 23 24 26 30 31 34 41 34 27 35 36 26 26 30 29 31 33 33 36 39 45 52 52 50 47 45 45 43 42 42 42 42 42 42 42 43 44 46 50 52 53 54 55 52 49 46 42 39 37 34 33 33 31 29 27 27 29 32 37 43 46 49 47 38 33 37 42 45 46 47 48 49
34 31 28 29 31 29 26 22 21 21 21 21 22 23 24 28 31 36 39 41 44 40 37 37 32 31 40 42 38 41 46 50 54 56 62 68 65 60 57 53 50 49 49 49 49 49 49 48 50 52 53 54 54 55 55 55 55 53 51 48 45 43 42 40 40 39 38 35 32 30 31 34 40 46 50 50 43 34 36 44 47 49 50 51 51 52
41 36 29 31 33 30 29 29 28 28 29 30 32 33 35 38 42 47 49 47 44 46 50 43 33 46 66 65 59 64 68 71 76 79 84 86 80 74 68 63 59 58 57 57 58 57 56 56 56 58 59 60 60 60 59 57 55 54 52 51 50 49 49 50 51 50 49 46 41 36 34 37 43 49 53 51 41 35 41 48 51 53 55 55 54 56
48 44 38 39 41 39 39 40 39 41 42 42 45 48 50 50 51 53 52 51 56 61 64 56 50 67 87 86 82 89 90 89 92 95 97 98 91 83 77 72 70 68 67 67 67 67 67 66 65 64 64 64 64 63 62 60 58 57 56 55 54 54 54 56 57 58 59 59 56 50 44 42 45 52 57 54 44 40 45 52 56 59 60 59 58 61
59 54 48 52 54 48 46 50 53 52 50 51 56 60 63 63 62 63 61 60 66 75 80 79 75 82 93 93 91 97 99 98 100 99 99 98 92 87 86 84 82 80 79 79 78 78 78 76 74 73 72 71 71 70 68 65 64 63 62 61 59 58 58 59 59 61 63 64 66 65 58 50 49 54 61 61 53 47 50 57 61 63 65 65 63 66
64 58 53 62 68 56 50 56 60 57 56 62 68 68 70 74 75 78 80 76 74 83 91 92 87 84 86 88 90 92 93 94 94 94 93 92 89 88 91 93 93 92 90 88 87 86 84 82 81 80 80 80 80 78 75 73 71 70 68 65 64 63 63 64 64 65 67 68 71 73 68 59 55 57 63 68 66 60 58 63 66 68 71 70 69 76
62 64 62 72 77 65 57 63 65 64 65 70 80 82 83 89 93 93 96 94 92 96 97 93 91 88 82 81 83 83 83 83 82 82 82 82 83 87 93 94 92 89 87 85 84 83 82 82 82 83 84 86 86 86 84 80 75 72 70 69 68 67 67 67 68 70 73 76 79 79 73 65 61 62 64 70 74 73 70 71 73 75 76 75 80 91
62 73 75 82 86 73 61 63 66 69 72 78 91 99 97 99 100 96 97 100 100 101 100 96 97 95 85 80 78 75 73 72 70 71 73 74 76 83 87 81 73 70 70 69 69 69 70 70 72 74 74 76 79 82 86 88 85 79 75 73 71 71 71 71 73 75 77 82 87 86 80 72 68 68 68 70 77 82 81 80 80 80 82 86 94 100
61 70 72 80 91 80 62 61 69 77 84 91 98 99 96 95 91 88 95 102 100 99 101 101 99 92 81 74 71 68 65 64 64 64 67 72 74 74 71 64 60 59 56 54 53 52 51 51 51 51 50 49 49 51 57 68 76 81 82 84 83 81 80 80 81 82 83 86 92 93 87 82 77 75 75 76 81 86 87 87 87 89 93 98 100 101
63 66 66 73 86 84 70 72 84 86 85 95 102 94 89 89 82 76 85 99 102 100 99 101 97 84 72 65 61 59 56 56 56 53 58 72 75 66 59 56 55 53 49 47 45 42 39 38 36 33 31 29 27 25 25 29 36 45 55 66 77 85 89 92 92 92 91 91 95 98 96 93 90 87 87 86 88 91 93 94 96 98 100 101 100 100
61 66 72 77 84 87 84 87 93 89 83 92 98 86 79 81 73 68 77 92 100 100 99 102 95 75 60 53 49 49 46 44 45 44 50 63 63 54 52 51 49 48 49 48 45 40 38 35 31 29 25 21 19 17 15 14 15 16 20 28 42 58 74 87 93 97 98 97 98 101 100 99 99 97 97 97 97 98 99 99 100 100 100 100 100 101
67 75 84 93 94 95 97 95 90 90 89 89 87 81 80 75 63 69 86 87 87 99 105 98 80 56 43 41 39 40 39 33 30 33 39 46 44 42 47 49 48 47 49 51 50 45 41 37 32 29 25 22 20 17 15 14 11 11 11 12 17 30 46 63 77 92 101 101 100 101 100 100 101 100 100 101 100 100 100 100 100 100 100 101 100 100
81 85 89 98 98 96 100 98 89 90 93 87 81 85 88 72 50 65 96 97 91 101 95 72 55 44 40 41 38 36 38 36 27 21 24 32 36 41 49 52 53 53 54 57 57 49 44 41 37 33 30 26 23 20 19 17 12 10 10 8 11 20 32 46 64 86 101 102 100 101 100 100 100 100 100 101 100 100 100 100 100 100 100 101 100 100
83 81 83 87 89 89 95 99 96 96 98 91 84 85 85 68 45 53 85 97 89 81 67 56 58 58 59 65 65 61 68 73 54 28 23 32 38 46 57 62 63 63 63 68 70 64 58 52 47 43 38 33 28 23 20 18 15 12 10 10 11 14 23 43 69 91 101 101 100 101 100 100 100 100 100 100 100 100 100 100 100 100 100 101 100 100
78 82 84 81 84 87 87 92 91 87 88 89 90 87 73 52 40 53 79 84 62 45 48 63 73 74 78 91 95 90 94 99 83 55 43 44 42 44 56 65 65 64 64 69 76 77 73 67 60 54 47 41 38 32 28 26 22 17 16 18 16 14 25 54 81 96 100 100 100 100 100 100 101 100 100 100 100 100 100 100 100 100 100 100 100 100
78 91 89 79 84 85 79 81 79 72 79 90 94 84 59 38 43 70 91 84 57 45 58 72 74 75 83 90 94 92 87 86 85 77 66 60 54 50 56 64 66 65 66 70 74 78 80 77 71 64 59 57 57 53 50 48 41 35 35 35 33 38 54 76 90 96 100 101 100 100 100 100 100 100 100 100 100 100 100 100 100 100 100 100 100 101
90 97 87 78 86 87 79 76 70 67 82 92 81 65 57 62 76 90 95 90 80 77 82 82 77 78 82 81 83 86 80 74 77 79 74 70 67 62 62 66 66 64 66 69 71 77 83 81 75 71 68 69 71 70 69 68 64 63 66 67 70 79 89 95 97 99 101 100 100 100 100 100 100 100 100 100 100 100 100 100 100 100 100 100 100 101
98 96 88 85 90 93 87 76 72 78 87 87 75 66 70 87 99 99 97 98 99 99 99 95 90 89 90 86 82 81 79 76 76 77 77 76 72 70 72 74 74 72 71 72 74 81 86 84 78 76 76 77 79 78 77 77 80 86 92 94 96 99 100 99 100 101 100 100 100 100 100 100 100 100 100 100 100 100 100 100 100 100 100 100 100 102
89 90 93 90 91 100 94 75 77 86 79 77 89 94 90 94 100 101 100 100 100 100 101 99 96 93 93 92 87 83 83 84 82 82 83 81 77 76 77 78 80 80 80 80 83 88 91 87 82 79 79 83 85 82 82 83 87 94 100 101 100 100 100 100 101 100 100 100 100 100 100 100 100 100 100 100 100 100 100 100 100 100 100 100 101 102
79 90 99 89 83 92 87 72 78 84 72 71 90 96 89 92 99 102 102 101 100 99 99 98 93 88 87 89 89 87 88 90 90 89 88 86 83 81 81 81 85 86 85 86 90 94 94 92 88 84 83 86 88 87 88 91 93 97 100 100 100 100 100 100 100 100 100 100 100 100 100 100 100 100 100 100 100 100 100 100 100 100 100 101 101 99
82 96 98 86 75 75 70 65 74 82 77 74 81 87 90 95 99 102 102 101 101 100 99 96 89 82 83 87 90 90 90 91 92 90 91 93 91 89 89 89 89 89 89 91 95 97 96 94 92 88 86 88 90 90 91 94 97 99 100 100 100 100 100 100 101 100 100 100 100 100 100 100 100 100 100 100 100 100 100 100 100 100 101 101 100 96
82 91 87 76 71 69 64 60 68 82 87 84 79 84 93 97 99 103 102 99 101 103 99 92 86 84 87 89 91 92 91 92 93 90 91 94 94 93 94 93 90 89 92 95 99 101 99 97 95 93 90 89 90 92 94 97 98 100 100 100 100 100 100 100 100 100 100 100 100 100 100 100 100 100 100 100 100 100 100 100 100 101 102 101 98 91
79 86 78 68 69 73 70 70 77 82 85 85 85 88 94 96 98 101 101 100 103 101 93 88 90 94 94 92 93 94 92 93 97 97 94 94 94 93 93 94 93 92 93 97 100 101 100 100 99 96 94 93 93 94 97 100 100 101 101 101 101 100 100 100 100 100 100 100 100 100 100 100 100 100 100 100 100 100 100 100 101 102 101 99 94 87
79 81 73 68 72 77 79 87 91 79 66 68 79 89 97 101 102 102 102 102 100 94 88 89 95 97 94 93 97 98 96 95 99 101 100 98 96 96 95 96 97 96 96 98 99 99 100 101 100 99 97 97 97 95 96 99 100 100 101 101 101 101 100 100 100 100 100 100 100 100 100 100 100 100 100 100 100 100 100 100 101 102 99 95 90 83
74 72 72 77 84 88 91 98 101 93 81 75 79 88 97 102 103 102 100 98 96 95 96 97 95 91 91 96 100 101 98 97 98 100 101 100 100 102 100 99 100 100 101 102 101 101 102 102 101 101 101 101 100 99 98 99 100 100 100 100 100 100 100 100 100 100 100 100 100 100 100 100 100 100 100 100 100 100 101 101 101 100 96 91 85 80
71 75 83 91 96 98 99 100 101 101 95 88 88 93 98 100 101 100 98 98 99 102 105 102 95 88 90 96 101 102 102 100 99 99 97 96 100 103 103 103 103 102 102 103 103 101 100 101 102 103 102 102 102 101 101 101 100 100 100 100 100 100 100 100 100 100 100 100 100 100 100 100 100 100 100 100 100 101 102 101 99 95 91 86 81 77
Wind_Speed
13 14 14 13 12 12 12 13 14 15 15 16 19 20 23 26 27 24 23 25 24 25 29 28 30 33 31 27 24 25 30 32 30 28 27 25 25 25 24 24 24 23 20 18 20 23 25 28 28 29 31 32 33 33 33 33 32 31 32 32 31 30 30 29 28 26 25 25 25 25 24 24 25 26 27 27 27 26 25 24 23 22 22 22 22 22
13 13 11 10 11 12 12 13 14 15 17 19 21 23 26 27 26 23 22 23 22 24 26 26 29 33 31 28 26 26 29 30 27 26 23 21 20 21 22 21 21 21 19 20 22 24 26 28 28 29 30 31 32 32 31 31 30 30 31 31 30 30 30 29 28 27 26 25 25 25 25 25 27 28 29 29 28 27 27 26 24 23 23 23 23 23
14 12 9 9 11 11 12 13 14 16 18 21 23 25 26 24 22 20 18 19 19 22 25 27 31 34 30 28 23 20 23 23 21 22 20 19 20 20 21 20 19 20 20 21 21 22 25 26 28 28 28 29 29 30 30 29 30 30 30 30 30 30 30 29 28 27 26 26 26 27 27 28 30 30 30 30 30 29 28 27 26 25 25 24 24 25
13 11 10 11 12 12 13 13 14 16 18 19 21 22 22 20 19 18 17 17 19 22 27 29 33 35 28 23 18 14 18 19 16 18 19 20 21 20 19 19 19 20 19 19 19 20 22 24 26 27 26 26 27 27 27 27 28 28 28 28 29 29 29 29 29 28 28 28 28 29 30 31 32 32 32 32 32 31 29 28 27 27 26 26 26 27
13 12 12 12 12 13 13 13 14 15 16 17 18 20 20 17 17 18 19 20 22 23 25 26 29 33 27 21 17 12 14 17 14 16 18 18 19 18 18 18 17 17 16 16 17 18 20 21 22 23 24 25 26 25 25 25 25 26 26 27 28 28 29 30 30 30 30 31 31 32 33 34 35 34 33 33 32 31 30 29 28 28 27 28 28 28
12 11 12 12 12 12 13 13 13 14 16 17 17 17 17 16 15 17 18 20 23 20 21 20 15 22 29 24 16 12 13 15 15 15 14 14 15 15 15 14 13 13 13 14 16 17 18 19 20 22 23 24 25 24 23 24 25 25 26 27 28 28 29 30 31 31 32 33 33 34 34 34 34 33 32 31 30 30 29 29 29 29 29 29 29 29
11 10 11 11 12 12 13 14 13 14 17 17 16 14 14 15 15 17 18 19 18 16 21 23 12 18 33 25 14 16 18 15 14 12 10 11 14 14 14 13 13 13 13 15 16 17 19 20 21 21 22 23 23 22 23 24 26 26 27 27 28 28 29 31 32 33 34 34 35 35 34 34 33 33 32 31 31 31 32 32 32 31 30 30 30 30
11 11 12 12 13 14 14 13 13 14 16 17 16 14 15 17 16 18 19 18 20 23 28 29 17 17 27 25 18 19 18 13 11 11 10 11 12 15 15 14 15 16 17 18 18 18 19 20 21 20 20 21 21 22 23 25 26 26 26 27 27 28 29 31 33 34 35 35 35 35 34 34 33 33 32 33 33 34 34 34 33 32 32 32 32 32
13 14 14 14 15 15 14 13 13 15 16 18 18 17 18 18 18 20 20 21 23 22 26 27 16 10 18 28 25 20 17 14 13 13 12 12 12 13 15 15 17 18 20 21 20 19 19 20 20 19 19 19 20 22 25 25 25 26 27 28 29 30 30 31 33 35 35 35 35 35 35 34 34 34 34 35 36 36 36 35 34 34 34 34 34 34
15 16 16 16 17 15 14 13 15 16 17 18 18 18 19 18 20 21 22 25 18 12 22 30 18 8 14 31 31 21 18 16 15 15 13 12 12 13 14 15 17 18 20 21 20 19 20 21 20 20 21 21 21 22 24 25 26 27 29 29 30 30 31 31 33 34 35 36 36 36 36 35 35 36 36 37 38 37 37 36 36 37 36 36 36 35
17 18 18 19 18 16 16 15 16 17 18 19 19 19 20 20 22 22 21 19 9 8 20 25 18 11 9 27 33 24 19 17 17 16 12 11 13 13 15 16 17 19 19 20 20 20 20 21 22 22 24 23 22 23 25 26 27 27 28 29 29 30 31 32 33 34 35 36 36 36 35 35 36 37 38 39 39 38 38 37 37 38 38 38 37 35
17 18 19 21 20 19 19 18 18 19 19 20 20 20 19 15 14 14 12 7 2 7 13 11 11 13 11 23 35 26 18 17 17 18 15 13 14 14 15 16 17 19 20 20 20 21 21 21 23 24 24 23 23 24 25 25 26 27 28 28 29 29 30 31 32 33 34 35 35 35 35 36 37 38 39 39 39 39 38 38 38 40 40 38 37 36
22 21 19 19 20 19 19 20 20 20 20 20 21 19 12 6 6 5 4 3 5 8 9 7 7 12 21 34 38 26 19 18 19 21 20 16 15 15 15 16 17 20 21 22 22 21 22 22 23 24 24 24 25 25 25 25 26 27 28 29 30 30 30 30 31 32 34 35 35 35 35 36 37 39 40 40 40 40 40 39 40 41 40 39 38 37
21 20 16 14 15 15 16 18 18 18 17 16 18 16 9 2 2 4 4 3 7 10 10 10 8 12 25 36 36 26 24 26 26 26 25 20 16 15 15 16 17 19 21 23 22 22 23 24 25 25 25 25 26 26 26 27 27 28 29 30 31 31 31 32 32 33 34 35 35 35 36 37 38 40 41 41 42 41 41 41 41 42 42 41 39 38
12 14 14 13 14 13 13 15 15 17 17 17 18 16 14 12 7 6 4 3 6 7 6 8 6 11 20 30 36 33 32 33 31 28 25 20 17 16 16 16 16 17 19 20 21 21 23 25 26 26 27 28 28 28 28 28 29 29 29 29 30 31 32 33 33 34 35 36 36 37 37 38 39 41 42 43 43 42 42 42 43 43 43 42 40 39
11 15 18 19 18 16 16 17 18 18 17 17 19 18 20 21 17 12 11 13 10 8 6 12 16 27 36 43 43 37 36 34 29 26 23 19 20 20 19 15 14 16 17 18 18 20 24 27 28 29 29 29 30 30 30 30 30 30 29 28 28 29 31 33 34 35 35 36 37 38 39 40 41 42 43 44 44 44 44 44 44 44 44 43 41 40
11 17 21 23 25 24 22 22 23 21 16 15 18 21 22 21 19 15 13 15 10 8 12 15 23 37 41 44 45 36 34 34 28 26 25 23 25 24 21 17 14 15 16 16 17 20 26 30 32 33 32 30 30 31 32 31 30 30 29 29 28 29 30 32 33 34 35 36 37 38 40 41 43 44 44 45 45 45 45 46 45 45 44 43 42 41
16 24 29 28 27 28 26 25 26 25 22 23 24 25 22 18 19 16 8 6 3 4 9 13 24 33 25 28 42 39 34 35 31 29 28 26 27 26 23 20 15 14 15 16 17 20 26 31 34 35 33 31 31 32 33 33 31 30 30 30 30 30 31 31 32 34 36 37 38 38 39 41 43 45 46 46 46 46 47 47 47 46 45 44 43 42
20 24 30 29 26 26 26 25 27 28 28 29 31 29 22 15 14 13 8 3 3 4 6 9 19 27 23 30 47 46 36 31 26 25 26 25 25 24 24 21 16 13 14 16 17 21 27 32 34 33 31 31 31 31 33 34 34 33 32 32 32 32 32 32 33 34 36 37 38 39 40 41 43 45 47 48 48 48 48 48 47 47 46 44 44 43
21 18 23 30 29 26 26 27 31 33 30 29 32 33 31 25 19 17 14 8 4 4 8 7 8 18 30 39 43 39 29 21 18 20 22 22 22 22 21 16 13 13 16 18 19 23 29 33 33 31 29 29 30 31 32 34 36 36 35 35 34 34 34 33 34 34 35 36 38 39 41 42 44 45 47 49 49 49 49 49 48 47 46 45 44 44
22 18 22 32 32 28 31 33 36 36 31 29 32 35 35 33 27 19 20 22 14 5 4 4 5 20 36 37 32 29 22 16 16 17 17 18 19 18 16 13 15 18 22 23 23 26 30 30 31 30 29 29 29 30 30 31 34 36 36 37 36 36 36 35 35 35 35 36 38 39 40 42 44 45 47 48 49 49 49 49 48 47 46 45 45 44
22 22 27 34 36 38 42 43 40 37 35 34 35 38 38 35 28 15 13 27 28 16 12 7 6 24 41 37 27 22 14 12 15 14 16 18 18 18 17 18 22 24 23 23 24 26 28 29 31 30 29 28 27 27 27 28 30 33 35 36 37 37 38 37 37 36 36 37 38 39 40 41 43 45 46 47 48 49 49 48 47 46 45 45 45 45
24 24 30 36 40 43 44 42 40 38 39 39 39 41 40 34 32 22 12 21 25 24 27 18 8 24 38 33 21 12 7 10 12 13 15 16 16 19 20 23 27 27 26 25 25 26 26 25 26 25 24 23 22 23 23 24 26 28 31 33 35 37 38 39 39 39 38 38 39 39 40 41 42 44 45 46 47 48 48 47 46 45 45 45 45 46
22 21 27 34 38 44 46 44 40 34 31 32 34 37 38 37 38 34 28 26 20 21 24 10 5 19 21 14 12 9 10 11 10 13 16 18 20 23 24 27 28 28 29 29 30 29 27 23 21 19 19 19 19 20 20 21 22 24 26 29 31 34 36 38 40 41 41 40 39 39 40 41 42 43 45 46 46 47 47 47 46 45 45 45 46 46
23 22 24 22 22 30 36 35 31 25 21 23 25 25 27 31 32 31 36 33 22 29 31 9 7 25 20 9 10 10 12 15 17 20 22 23 25 25 27 29 31 31 32 32 32 31 29 28 26 24 23 22 21 20 19 20 21 23 25 28 30 32 34 36 38 40 40 40 40 40 39 40 41 43 44 45 46 47 47 46 45 44 45 45 46 47
29 31 30 21 11 12 17 21 25 26 28 32 32 28 27 29 28 26 31 28 20 31 36 19 22 38 35 27 27 25 26 29 30 29 27 25 26 27 29 32 32 33 32 31 30 28 27 27 27 27 27 26 25 24 23 22 21 23 25 27 29 31 33 34 36 37 39 40 40 40 39 39 40 42 44 45 46 47 46 45 44 44 45 46 47 47
30 35 37 33 28 28 33 36 37 36 38 42 44 44 43 41 38 33 28 28 27 30 33 34 40 41 33 32 36 36 35 34 33 32 29 27 27 26 27 27 27 26 25 24 25 25 25 25 25 27 27 27 28 28 27 27 25 25 26 28 29 30 31 32 32 34 36 38 40 40 40 39 39 41 44 46 47 47 46 45 44 44 45 47 48 48
28 35 39 38 38 41 44 45 43 41 42 44 44 45 43 38 35 32 29 33 36 30 27 38 44 31 22 27 32 33 34 33 32 29 26 25 25 24 22 22 22 22 22 22 23 24 25 26 27 29 29 31 32 32 32 32 31 30 30 31 31 31 31 31 32 33 34 36 38 40 40 38 38 40 45 47 49 48 47 46 44 45 46 48 49 49
26 34 39 38 39 43 44 42 42 41 40 38 34 31 31 31 30 31 33 35 34 27 26 36 39 26 20 24 27 28 30 29 28 25 23 24 24 23 23 23 23 23 23 24 25 26 27 28 30 31 32 34 35 35 36 35 34 33 33 33 33 33 33 33 34 35 35 36 37 38 39 39 38 40 44 49 51 50 49 46 45 45 47 49 50 50
26 33 38 36 38 45 45 41 39 36 32 29 27 26 26 25 24 24 25 25 25 24 23 27 29 22 18 23 25 25 26 26 25 23 24 25 25 25 26 26 26 26 26 26 27 27 28 29 30 31 33 34 34 35 36 36 35 34 33 33 34 33 34 34 35 36 36 37 38 39 39 40 40 40 42 48 52 52 50 48 47 47 48 50 51 50
30 33 38 36 37 42 43 38 34 30 27 26 27 27 22 17 17 19 19 19 18 16 16 17 18 19 19 24 26 25 27 28 26 26 29 29 29 29 28 27 27 27 28 29 29 29 30 30 30 30 31 31 32 34 35 36 36 36 35 35 34 35 35 36 37 37 37 38 39 40 40 41 41 41 41 44 49 52 51 49 48 48 49 50 51 50
32 34 37 32 30 37 41 36 34 35 34 28 21 19 16 14 19 23 20 18 15 13 15 16 18 23 28 29 29 29 30 31 31 33 35 35 33 31 29 29 30 31 33 33 33 33 33 33 32 32 32 32 33 34 36 38 39 39 39 39 39 40 40 41 41 42 42 42 41 40 41 40 40 41 42 42 45 49 51 50 50 50 50 50 50 49
29 30 32 27 25 33 37 35 37 39 32 18 9 16 18 14 18 25 24 19 17 16 18 21 26 33 37 37 37 37 36 37 38 39 39 38 36 32 31 34 36 37 37 37 36 36 36 36 36 36 36 36 37 37 38 40 42 42 42 43 44 45 45 46 46 46 45 43 41 40 40 40 40 40 42 42 42 45 49 51 51 50 49 49 49 48
23 23 26 25 23 29 34 36 35 27 15 6 3 13 18 17 24 32 27 19 19 19 19 22 28 37 42 44 46 46 45 45 45 44 41 38 36 36 38 40 41 41 40 40 39 39 38 38 38 37 38 38 39 40 41 42 44 44 45 45 46 46 46 46 45 44 42 41 40 39 39 40 41 40 41 42 43 45 48 49 49 48 47 47 47 46
24 26 27 25 24 28 33 30 19 10 5 7 6 9 16 18 27 37 30 18 19 25 25 23 30 41 47 50 51 51 52 51 50 48 43 36 35 39 43 44 44 44 44 44 43 43 42 41 41 40 40 40 41 42 42 43 44 45 46 46 47 47 47 46 44 42 41 40 39 39 39 39 40 41 41 42 42 44 45 45 45 45 45 45 45 46
29 27 26 26 24 24 23 17 9 9 9 9 10 14 19 21 29 40 36 25 24 30 30 26 34 47 54 53 52 52 53 54 55 52 44 38 39 42 43 44 46 46 46 46 46 46 45 45 45 44 44 44 43 44 44 45 45 46 46 46 47 47 47 48 47 45 42 40 40 39 38 38 38 39 39 39 40 41 41 42 42 42 42 43 44 45
27 24 22 20 17 15 18 19 17 17 15 12 14 19 23 30 39 39 32 31 32 31 30 31 41 54 57 55 53 52 52 55 58 55 48 44 45 45 43 44 45 45 45 45 45 45 46 46 46 46 47 46 46 46 46 46 46 47 47 47 47 47 46 46 47 46 43 40 39 39 37 35 35 36 36 37 38 38 39 40 40 41 42 43 44 45
23 21 18 14 13 15 18 18 15 12 9 10 15 19 25 37 45 35 26 28 27 25 31 39 48 52 53 52 52 51 51 54 58 58 54 51 49 47 45 44 44 45 45 45 45 46 45 46 46 46 46 47 47 46 46 47 48 48 48 47 47 47 46 45 44 44 42 39 37 37 35 33 33 34 35 36 37 38 38 39 40 41 42 43 44 44
22 21 18 14 13 15 15 11 8 6 7 12 21 25 27 37 47 41 26 21 23 29 38 46 49 49 49 47 47 48 47 48 54 57 56 54 52 49 47 47 47 46 45 45 45 46 45 45 46 45 45 46 46 46 46 47 47 48 48 47 47 47 46 45 42 40 38 37 36 35 33 32 33 34 36 37 37 37 38 39 40 41 42 43 44 44
28 24 20 15 13 14 15 11 9 10 15 21 26 29 34 44 49 36 18 20 36 47 48 48 50 51 48 45 45 45 42 43 50 55 54 53 52 48 46 48 48 48 46 46 45 44 44 44 44 45 45 45 45 45 46 46 46 46 46 46 46 46 45 43 40 37 36 35 33 32 31 31 33 35 36 37 37 38 38 39 40 41 42 43 43 43
31 24 20 18 16 17 17 14 14 17 19 21 24 31 43 51 42 24 17 31 48 50 47 50 53 51 48 47 47 47 46 47 50 52 52 52 52 50 47 48 48 47 46 46 45 44 44 43 42 43 43 43 44 44 44 45 45 44 43 43 44 44 42 40 38 36 34 33 30 29 30 32 34 35 36 36 37 38 38 39 40 41 42 43 42 41
27 23 20 21 21 19 17 18 20 17 15 20 30 39 46 45 35 28 32 40 43 43 47 52 51 48 48 48 48 49 50 51 50 50 50 51 51 51 49 48 49 48 46 45 44 43 43 43 42 42 42 42 42 42 42 42 42 41 40 39 39 38 37 36 35 34 32 29 28 28 30 32 34 34 35 36 37 37 38 39 40 41 42 42 41 40
22 20 19 21 23 20 16 14 13 12 19 30 39 43 45 43 38 36 38 39 41 45 50 51 48 47 47 48 49 50 51 51 50 49 49 50 50 50 48 48 48 48 46 45 44 42 43 43 42 42 41 41 40 40 39 39 37 35 34 33 33 33 33 32 32 30 28 26 27 28 30 32 33 34 35 35 36 37 38 39 41 42 42 41 40 38
18 18 17 19 19 15 14 15 14 19 30 37 38 43 47 45 39 36 37 40 45 48 50 51 49 47 45 46 48 49 49 49 49 48 49 50 50 49 47 46 46 46 46 45 44 43 42 42 42 41 40 39 38 37 36 35 33 31 30 30 31 31 31 30 28 26 25 25 26 28 30 31 32 33 34 35 36 38 39 40 41 41 41 39 38 36
17 18 18 21 21 19 23 27 27 29 36 40 43 48 50 46 41 38 38 41 44 47 48 49 49 48 46 45 46 47 48 47 47 48 48 49 49 48 47 45 44 44 45 44 43 42 42 41 41 41 39 38 36 35 33 31 30 29 28 29 30 30 29 27 25 24 24 25 27 28 30 31 32 33 34 35 37 39 40 40 41 40 39 37 35 34
19 20 20 23 27 29 32 33 31 34 40 44 47 50 49 45 42 40 39 40 43 45 47 47 48 48 45 44 45 47 47 47 47 47 47 47 48 47 46 45 44 43 43 43 42 41 41 40 40 39 38 36 34 33 31 30 29 28 28 27 26 26 26 26 25 24 25 26 27 29 30 32 33 34 35 37 38 39 40 40 39 38 36 34 33 33
21 21 23 27 32 36 38 36 37 42 46 49 51 52 49 44 40 37 38 40 42 45 47 47 47 46 44 43 45 46 46 46 47 47 47 47 47 46 45 44 44 42 42 42 41 40 40 40 39 38 37 35 33 32 30 29 28 28 27 26 25 24 24 24 24 24 25 27 28 29 31 32 33 34 36 38 39 39 39 38 36 35 33 31 31 32
21 23 27 32 36 40 41 41 44 49 51 53 56 55 49 45 42 39 39 42 44 46 47 47 46 44 43 43 45 46 47 46 46 47 48 48 47 45 44 43 43 42 41 40 40 39 39 38 38 37 36 35 33 31 30 29 29 28 27 27 26 25 25 25 25 25 27 28 29 30 31 33 34 35 37 37 37 37 36 35 33 32 31 30 30 32
23 25 30 36 41 43 42 44 49 55 56 56 57 56 49 44 43 42 42 44 45 46 46 48 46 43 42 43 46 48 49 47 47 48 48 48 46 45 43 42 41 41 39 38 38 37 37 36 36 36 35 34 33 32 30 28 28 28 28 28 27 27 27 26 26 27 28 28 30 31 32 34 35 35 35 35 35 34 33 32 31 30 29 29 30 31
25 29 34 39 43 44 43 44 49 56 61 61 59 55 49 43 42 44 44 44 45 47 48 49 47 43 42 44 47 50 50 49 47 47 48 48 46 44 42 42 41 39 38 37 36 35 34 34 34 34 34 33 32 31 30 28 27 27 27 27 27 27 27 28 28 28 29 29 30 31 32 33 34 34 33 32 32 31 30 29 28 28 27 27 28 29
28 33 36 38 39 40 42 45 50 58 64 64 59 54 49 45 43 44 44 44 46 48 49 48 46 45 45 47 50 53 53 50 48 48 49 47 44 42 41 40 39 37 36 35 34 33 33 32 32 32 32 32 31 30 29 27 27 26 26 26 26 27 27 28 28 28 29 30 30 31 31 32 32 31 31 30 29 28 27 26 26 26 26 26 27 28
Wind_Direction
275 271 273 279 282 277 269 265 266 271 273 274 277 278 282 286 288 291 290 288 286 284 285 287 289 291 292 294 295 294 290 285 282 281 280 277 275 273 269 265 262 259 256 254 253 252 252 252 252 252 253 254 257 259 260 259 258 255 251 250 249 248 248 247 245 245 247 250 253 255 254 253 250 247 246 247 248 249 250 250 250 251 256 262 268 274
278 280 290 292 283 274 267 264 264 267 270 272 274 277 281 285 290 295 291 287 287 286 288 293 294 292 293 297 300 296 288 283 282 280 278 275 271 268 264 260 259 258 255 252 249 247 249 252 253 253 253 255 257 260 261 262 261 257 253 250 248 246 245 246 246 246 248 250 254 255 252 249 246 245 246 248 250 251 250 248 248 250 254 259 266 273
287 295 302 285 275 272 269 269 270 270 270 271 274 277 282 286 291 293 288 288 290 289 293 298 297 294 298 304 303 296 286 281 280 277 273 271 267 263 263 263 260 257 254 253 252 251 252 254 255 256 257 258 260 260 260 260 257 253 251 249 246 245 244 245 246 247 248 250 253 253 250 247 246 246 248 249 251 251 250 248 248 250 254 259 265 271
294 303 296 280 277 275 273 274 278 278 275 274 273 275 280 287 289 288 289 291 291 293 297 300 298 298 307 310 305 302 290 281 275 274 273 270 268 265 264 264 260 257 256 257 258 257 257 257 258 261 263 264 263 262 260 258 256 254 253 251 249 247 245 245 245 246 248 250 251 249 247 245 246 247 249 251 253 253 251 250 251 252 255 260 266 271
295 297 289 284 284 280 279 279 280 280 278 275 273 274 281 286 284 284 291 294 295 296 296 299 300 300 310 316 313 309 285 281 285 282 279 274 270 266 260 259 261 262 261 260 261 261 262 262 264 267 268 266 265 264 264 262 260 257 255 253 251 249 247 245 245 245 247 249 250 248 246 246 247 249 252 255 258 257 254 252 253 254 257 261 267 273
296 291 286 285 285 284 282 280 277 276 277 277 277 279 283 286 285 286 292 295 299 300 296 304 312 303 309 317 321 313 289 291 299 291 285 273 261 259 264 264 259 258 260 262 263 262 263 264 266 268 267 267 268 269 270 267 263 259 255 252 250 248 246 245 245 245 247 249 250 250 249 250 253 254 257 260 260 257 254 253 253 255 259 264 269 274
294 289 286 284 284 283 279 278 278 275 276 279 282 284 282 285 289 289 291 293 296 294 292 297 292 287 302 314 329 322 309 302 300 296 290 270 258 267 281 280 264 259 265 270 267 261 260 262 263 265 265 266 269 271 271 267 263 260 257 253 251 250 248 246 245 245 246 248 251 252 252 253 255 255 256 257 255 251 250 251 253 257 261 265 270 274
295 290 287 284 281 280 280 283 281 275 274 277 283 287 283 286 289 288 289 288 287 289 290 290 276 265 288 304 324 323 310 300 298 304 303 284 271 271 276 275 267 265 269 270 268 264 263 265 266 268 268 265 263 264 263 261 261 261 259 257 254 252 250 248 247 246 247 249 251 254 255 255 255 255 256 255 252 249 250 253 256 259 262 266 271 275
294 287 286 283 279 280 284 284 275 271 272 275 282 284 283 287 286 286 288 285 288 296 291 284 271 244 271 292 312 317 300 294 297 301 305 296 283 273 269 267 265 264 267 267 266 265 266 269 271 274 274 267 258 256 256 258 259 259 258 256 253 251 250 249 249 249 249 251 253 254 255 255 255 255 255 254 252 252 254 256 258 260 264 268 272 276
290 284 282 279 279 281 280 276 270 270 271 275 280 281 283 286 285 287 287 284 288 285 278 278 266 229 274 291 302 312 302 293 295 302 306 295 285 279 271 265 265 265 265 265 263 262 265 268 271 273 272 269 264 260 258 257 257 256 257 256 254 253 252 251 251 251 252 252 253 254 255 255 255 255 255 255 255 255 257 258 260 263 266 269 273 276
287 283 279 277 280 280 277 274 272 272 272 275 278 279 283 286 286 286 281 281 287 258 269 277 262 229 271 294 298 309 306 294 297 305 307 294 284 276 269 264 262 262 260 260 259 261 266 270 271 270 269 270 270 266 263 261 260 260 261 260 260 258 255 254 253 253 254 255 255 255 256 256 255 255 256 257 258 259 260 261 263 265 267 270 274 279
288 286 283 281 280 277 275 274 272 271 271 273 275 279 286 291 289 284 274 262 226 251 266 270 250 219 219 282 298 308 302 293 301 304 302 296 284 272 270 266 260 260 260 259 260 264 270 272 271 269 269 270 270 267 266 265 264 264 264 264 262 261 258 258 257 257 257 258 258 257 257 256 256 256 258 259 260 261 262 263 265 266 268 272 276 280
295 291 287 284 280 276 272 271 271 271 271 271 272 273 279 300 306 280 255 232 224 249 262 244 233 222 236 273 294 303 299 300 304 302 301 296 281 271 271 265 257 254 255 258 260 265 269 270 272 270 269 269 268 268 268 267 265 263 262 261 261 261 261 261 260 259 259 259 259 259 259 259 258 258 259 260 261 262 263 264 266 268 270 273 276 281
301 300 297 290 285 280 274 272 272 272 270 268 267 263 247 216 356 276 259 276 264 259 252 240 245 242 251 274 291 297 301 302 300 299 299 293 282 276 274 266 258 254 252 255 257 262 267 271 273 273 270 268 267 268 268 266 265 263 262 260 258 259 260 260 260 259 259 259 259 260 260 260 260 259 260 260 261 263 264 265 266 269 271 273 276 280
292 296 300 296 291 288 283 281 277 273 270 267 266 259 245 236 231 247 246 228 269 279 235 207 221 237 252 276 289 293 296 296 296 296 292 285 280 282 284 272 261 260 258 257 258 262 269 272 274 274 272 270 268 268 266 264 263 263 264 264 262 260 259 260 261 261 260 260 260 260 260 261 261 261 261 261 262 263 264 265 267 269 270 272 275 280
270 276 291 295 293 290 285 283 280 276 271 267 262 250 247 251 246 247 259 257 270 301 255 220 238 255 266 279 285 290 293 291 293 291 281 280 284 288 295 288 270 264 264 266 266 267 271 276 278 278 276 273 270 268 266 264 263 263 264 266 267 265 263 261 261 262 262 262 261 261 261 261 262 262 262 262 263 264 265 266 267 268 269 271 274 279
267 274 287 292 292 291 287 285 280 272 265 261 257 251 255 261 255 250 265 272 271 285 268 242 250 265 273 283 287 290 295 294 295 291 285 289 293 293 299 302 286 268 264 268 270 267 270 275 280 283 284 280 274 268 265 264 263 262 262 264 266 267 265 264 264 264 265 264 264 263 262 261 261 262 263 264 264 264 265 265 266 267 268 270 274 278
274 279 287 290 290 288 286 284 280 272 264 258 257 263 264 260 255 246 254 297 271 263 268 240 255 268 268 282 290 292 297 301 300 297 294 294 293 290 294 301 297 278 268 270 271 268 268 270 277 284 286 283 278 271 267 265 263 261 260 260 263 265 266 267 267 267 267 266 266 266 265 263 263 263 263 263 263 263 264 264 265 266 267 269 272 276
280 284 292 292 286 284 285 281 278 274 268 263 263 264 258 248 246 227 212 272 253 250 281 243 256 267 256 272 291 295 298 305 304 300 299 295 289 286 289 295 291 277 271 274 275 269 268 270 275 282 284 283 281 275 269 266 264 263 262 262 262 264 265 267 267 268 268 268 268 267 267 265 263 262 262 262 262 262 263 263 264 264 264 267 271 275
281 280 289 292 288 284 279 273 277 280 275 268 263 257 251 247 245 231 223 231 211 231 280 271 257 270 272 284 298 305 309 314 307 301 298 290 282 281 286 283 266 260 270 275 271 264 265 269 273 279 282 282 280 276 272 268 266 265 265 265 265 266 267 268 268 270 271 271 270 268 267 265 263 262 260 260 260 260 261 261 261 261 263 267 271 275
280 266 273 287 287 278 277 281 288 290 283 272 263 257 253 247 242 241 244 243 237 227 267 280 260 272 283 295 306 315 325 320 301 293 285 278 273 270 267 259 258 268 276 276 268 262 263 268 274 281 284 283 280 275 272 269 267 267 267 267 267 267 268 269 270 271 272 272 271 269 268 266 264 261 259 258 257 258 259 259 258 259 263 267 271 274
280 268 269 279 280 278 288 296 294 290 284 277 271 268 267 259 244 236 251 251 246 234 235 248 265 276 285 294 303 313 318 296 283 275 265 265 261 255 254 263 274 278 275 270 266 266 270 275 279 282 283 281 279 275 272 270 268 268 268 268 269 269 269 270 271 271 271 271 271 270 268 266 263 260 258 256 256 256 256 256 256 259 263 268 271 274
284 273 267 274 281 286 294 296 290 286 281 276 273 272 272 267 251 235 238 256 251 243 246 249 265 281 283 287 294 299 267 254 261 255 255 262 265 270 276 281 284 281 274 269 268 271 275 276 277 277 276 276 275 273 272 271 270 270 270 270 270 270 270 271 271 270 270 269 269 269 267 265 263 259 257 255 255 254 253 253 256 260 265 268 271 274
288 274 267 275 286 292 294 293 290 289 283 276 277 277 273 272 265 253 248 259 264 259 257 249 260 278 279 275 276 262 226 232 250 260 271 279 283 286 288 287 287 284 280 276 274 273 270 266 263 261 265 269 271 273 274 276 277 276 274 272 270 270 270 270 270 269 268 267 266 266 266 264 263 259 257 255 254 252 251 253 257 261 265 268 270 272
291 282 274 278 293 297 297 299 298 302 303 295 294 293 285 281 279 269 260 263 267 264 263 255 255 267 266 259 265 251 233 252 274 284 291 294 292 290 289 290 291 289 286 281 276 274 269 264 260 257 258 263 267 272 277 282 285 282 278 274 271 270 269 269 269 267 266 265 264 263 264 264 263 260 257 254 252 250 251 254 259 262 265 267 270 271
290 284 278 270 270 284 286 291 297 304 307 303 300 300 299 296 296 289 272 263 261 264 265 261 262 268 270 272 277 277 275 279 284 289 296 302 300 296 293 292 291 287 281 275 271 270 269 268 268 267 268 270 273 277 280 282 283 280 276 273 270 269 269 269 269 268 267 265 263 262 262 263 263 261 257 253 250 249 252 256 260 263 265 267 269 269
287 285 283 273 265 270 277 283 289 293 293 293 294 294 296 298 300 300 283 263 264 271 269 266 270 277 281 282 283 286 290 294 297 299 305 306 300 296 291 285 281 275 269 266 268 269 270 272 276 280 282 283 285 287 288 288 286 281 275 271 269 268 268 270 272 272 271 268 265 263 262 263 264 262 257 252 249 249 253 258 261 264 266 267 268 269
284 284 290 285 278 282 288 290 291 291 291 292 295 296 298 299 299 298 286 275 278 279 273 274 280 290 301 295 294 298 300 304 308 312 316 313 305 298 288 277 271 268 266 269 273 275 277 279 282 286 289 291 293 294 294 294 292 287 281 275 271 270 271 273 275 276 276 274 271 267 264 264 264 262 258 253 250 250 254 258 263 266 267 267 267 269
286 285 293 293 290 293 296 294 295 296 297 298 300 302 302 300 299 296 288 284 285 279 275 281 284 293 309 303 302 311 312 309 314 322 324 317 305 294 287 282 279 279 279 281 284 286 288 288 289 290 293 295 297 297 296 295 293 289 283 277 274 272 273 274 275 276 277 277 277 274 269 265 261 261 259 255 252 252 255 259 263 267 267 266 267 269
293 290 297 297 295 300 301 300 302 302 302 306 308 307 307 304 303 302 295 289 282 274 278 286 281 284 313 320 314 320 324 320 318 320 320 314 304 296 296 296 294 293 292 292 293 294 294 295 295 296 296 297 297 296 295 293 290 285 280 276 273 271 272 273 273 275 276 279 281 280 274 267 261 259 259 257 255 254 256 259 263 267 268 266 266 268
302 299 304 302 296 301 307 306 305 304 305 310 307 302 305 314 322 326 320 307 298 290 294 299 289 288 312 326 324 324 327 326 322 320 323 321 315 311 311 310 307 304 301 300 300 299 298 297 297 297 297 296 294 292 290 288 286 283 279 275 272 272 273 273 273 275 278 280 282 280 275 269 262 258 257 258 257 256 257 259 263 266 268 266 265 268
308 304 308 307 298 301 308 308 306 307 306 306 308 316 329 344 348 348 338 321 318 322 320 324 330 327 325 326 326 326 327 328 328 331 334 331 325 322 320 317 314 310 308 307 305 303 301 299 297 295 294 292 290 288 286 285 284 283 281 278 277 277 277 276 277 279 280 281 280 277 273 268 263 259 256 256 257 257 257 258 262 266 267 265 265 269
319 311 310 311 300 301 313 317 313 313 312 309 343 1 355 355 354 350 341 323 314 324 338 348 350 343 337 334 331 328 329 329 330 333 336 333 327 324 320 316 315 313 312 310 308 306 304 301 298 296 294 292 290 288 285 284 284 283 283 282 281 281 280 280 281 281 280 279 275 272 270 266 263 260 256 254 254 254 255 258 262 265 264 263 266 270
339 333 328 319 299 302 320 324 317 314 309 269 316 356 355 356 355 350 342 322 305 308 324 338 338 336 336 336 333 329 328 328 328 330 332 329 323 321 318 316 316 315 314 313 311 309 306 303 301 299 297 295 293 290 288 285 283 282 282 281 281 282 282 282 283 282 279 275 271 268 266 263 261 259 257 254 252 253 255 258 260 261 261 264 268 272
346 343 338 325 306 305 316 319 314 309 278 226 238 332 340 339 346 348 343 321 299 298 300 309 324 330 331 331 331 328 325 324 323 324 326 323 317 316 316 315 315 314 314 313 311 309 308 306 304 301 299 297 295 293 290 288 286 284 282 281 280 280 280 281 282 282 279 275 271 268 265 263 261 259 257 255 253 253 255 256 258 260 263 268 271 273
339 339 336 325 314 308 307 306 303 298 284 245 245 293 306 308 327 339 338 325 310 302 295 300 317 324 325 327 328 326 323 321 319 321 323 318 313 314 314 312 311 311 311 310 309 308 307 306 305 304 302 300 298 296 293 291 289 287 285 284 282 281 280 279 279 279 279 277 274 270 268 266 263 260 258 255 254 254 255 257 260 264 267 270 272 274
343 342 336 325 317 314 312 311 309 299 289 280 288 309 327 334 338 339 329 318 313 301 291 301 314 318 321 324 325 324 322 319 316 316 319 318 316 315 314 311 309 307 306 305 303 303 303 302 302 302 301 300 299 297 296 293 291 288 287 285 283 282 281 279 277 276 276 276 275 272 269 267 264 261 258 255 255 257 259 262 265 267 269 271 273 274
349 344 338 326 319 328 329 322 315 302 290 299 309 318 331 337 341 338 314 302 303 291 291 308 317 319 321 323 323 323 323 320 316 314 315 318 318 317 316 313 309 306 304 302 299 298 297 297 297 297 297 297 296 295 295 293 291 289 287 285 283 281 280 279 277 275 274 274 272 269 266 264 262 259 257 257 259 261 263 265 267 268 270 271 273 274
346 341 337 329 325 336 340 328 312 302 293 300 305 308 315 324 330 330 311 289 293 300 309 318 320 320 322 323 324 326 327 324 320 318 318 319 319 319 318 316 314 310 307 304 302 300 298 297 297 296 296 295 294 292 291 290 288 287 286 284 282 280 278 278 276 273 271 270 267 263 260 259 257 257 258 261 263 264 265 266 267 268 270 272 274 275
343 343 343 343 341 342 340 327 308 303 300 299 302 308 315 319 323 325 310 292 305 313 318 321 319 319 322 324 324 325 323 318 316 318 319 318 317 318 318 316 315 312 309 307 305 303 301 300 299 299 298 298 297 294 292 290 288 286 284 282 280 278 276 275 273 271 268 265 262 258 256 256 256 258 261 263 264 265 265 266 267 269 272 273 275 275
340 342 342 345 345 341 339 329 315 310 303 299 302 310 316 320 323 323 305 302 310 315 317 316 315 317 320 321 320 319 317 314 313 314 315 315 314 315 316 315 313 311 309 308 306 304 304 303 302 303 303 303 303 301 298 296 292 289 286 283 279 276 274 271 270 268 265 261 257 255 255 257 259 261 263 263 264 264 266 268 270 272 274 275 275 275
335 335 336 341 340 336 333 325 318 316 306 302 307 314 322 327 326 315 303 301 304 306 309 312 314 317 318 317 316 314 313 312 312 312 312 312 312 314 314 314 312 311 310 308 307 307 306 305 304 305 306 306 306 304 303 300 297 294 290 285 279 275 272 269 267 264 259 255 253 255 257 259 261 263 264 264 265 267 269 272 274 275 276 277 276 275
327 328 334 339 335 329 326 326 323 312 307 311 315 320 327 331 323 311 302 299 298 301 307 314 319 320 318 316 314 313 312 311 312 312 312 311 311 313 313 313 313 312 311 310 310 310 308 307 307 308 309 309 308 306 305 303 299 296 292 287 282 277 272 267 262 257 252 251 254 257 259 261 262 264 265 266 269 271 273 275 276 277 278 277 276 274
320 322 327 331 332 323 313 315 314 305 309 319 324 325 326 326 321 311 304 303 304 307 312 318 320 319 318 317 315 314 313 313 313 313 312 310 311 311 312 312 313 312 312 312 311 310 309 308 308 309 310 311 310 308 307 305 302 300 296 292 286 279 272 265 257 250 249 253 258 260 261 262 264 266 268 271 273 275 276 277 278 278 278 277 275 273
315 315 317 322 325 315 307 312 316 314 318 325 327 326 326 324 321 316 310 306 307 310 314 317 317 316 318 319 318 316 315 315 314 313 312 311 310 311 312 312 313 312 311 311 311 310 309 308 309 310 311 312 311 309 308 307 305 302 298 294 287 279 270 261 254 252 255 260 262 264 265 267 269 271 274 275 276 277 278 278 278 278 277 276 274 272
315 315 316 321 322 316 312 316 320 322 324 327 327 328 327 323 319 317 312 306 306 309 313 315 314 315 318 321 320 318 317 317 316 315 314 313 312 311 312 311 311 311 310 310 310 309 308 308 309 311 311 312 311 309 307 306 303 300 295 292 287 281 272 263 257 257 260 264 266 268 270 272 274 276 277 278 278 278 278 278 278 278 276 274 272 270
318 317 318 322 323 319 317 320 324 325 325 327 328 328 326 321 319 318 313 308 308 309 311 314 316 318 320 322 323 321 319 319 320 318 318 317 314 311 310 310 309 309 310 310 311 310 309 310 310 311 312 312 312 311 308 305 300 295 291 288 286 283 279 274 270 269 269 270 271 273 274 276 277 278 278 278 278 278 278 278 278 276 274 271 268 265
318 316 318 322 321 319 322 327 329 326 325 326 328 329 327 324 322 319 312 307 307 308 311 317 321 322 322 324 326 325 323 323 323 321 320 319 316 313 311 309 308 308 309 311 311 311 310 310 311 311 313 314 314 312 310 306 301 295 290 286 283 280 279 278 277 276 276 276 276 276 277 277 277 277 277 277 277 278 278 276 274 272 270 267 264 263
313 314 318 320 320 323 328 331 329 326 325 326 328 329 328 325 320 315 308 305 307 311 316 321 322 322 323 326 329 328 326 325 324 323 321 321 318 315 312 309 307 308 309 311 311 310 309 310 310 312 313 314 314 312 310 307 302 297 292 288 284 280 278 276 275 275 275 275 275 275 275 275 275 275 276 276 276 275 273 271 269 268 266 264 262 262
315 316 319 320 322 326 328 326 324 323 323 323 325 327 326 322 317 313 311 310 314 318 320 321 321 321 325 329 331 330 328 325 324 322 321 321 320 317 313 310 308 307 309 311 311 309 309 309 310 311 313 314 314 313 311 308 304 298 294 289 285 282 279 276 274 274 273 272 273 273 273 273 274 274 274 273 272 270 268 267 267 265 264 262 261 261
318 318 321 322 320 320 320 319 319 319 318 321 324 324 322 320 318 317 317 317 318 319 319 319 320 324 328 331 332 330 327 324 323 322 321 321 320 316 313 311 309 308 309 311 310 309 309 309 310 311 313 315 315 314 312 309 305 300 296 292 288 284 281 278 276 275 273 273 272 272 272 272 272 272 271 269 268 267 266 265 264 263 262 261 260 261